GW3518 Weather Reports


time (UTC)temp
F
wind
direction
speed
knots
gust
knots
rain 1hr
in
rain 24hr
in
rain mn
in
humidity
%
barometer
mb
20260504150929 58 344 1.7 1.7 0.00 0.00 0.00 49 1006.1
20260504150426 58 72 0.0 0.9 0.00 0.00 0.00 51 1006.2
20260504140853 59 59 0.9 1.7 0.00 0.00 0.00 47 1006.2
20260504140349 59 16 2.6 5.2 0.00 0.00 0.00 47 1005.9
20260504130818 56 78 0.0 0.0 0.00 0.00 0.00 53 1006.4
20260504130314 55 115 0.0 0.9 0.00 0.00 0.00 58 1006.6
20260504120237 43 349 0.0 0.0 0.00 0.00 0.00 88 1006.9
20260504110705 38 123 0.0 0.0 0.00 0.00 0.00 92 1007.4
20260504110201 38 123 0.0 0.0 0.00 0.00 0.00 91 1007.4
20260504100125 37 203 0.0 0.0 0.00 0.00 0.00 92 1007.5
20260504081518 36 202 0.0 0.0 0.00 0.00 0.00 92 1007.5
20260504081013 36 202 0.0 0.0 0.00 0.00 0.00 92 1007.8
20260504080510 36 202 0.0 0.0 0.00 0.00 0.00 92 1007.6
20260504050311 36 236 0.0 0.0 0.00 0.00 0.00 78 1007.8
20260504045808 36 235 0.0 0.0 0.00 0.00 0.00 78 1007.8
20260504045304 36 249 0.0 0.9 0.00 0.00 0.00 75 1008.0
20260504044800 36 187 0.0 0.0 0.00 0.00 0.00 77 1007.8
20260504044258 36 187 0.0 0.0 0.00 0.00 0.00 75 1008.1
20260504043755 36 254 1.7 1.7 0.00 0.00 0.00 76 1008.1
20260504043251 36 249 0.0 0.0 0.00 0.00 0.00 78 1008.1
20260504042749 36 248 0.0 0.0 0.00 0.00 0.00 78 1008.2
20260504042245 36 266 0.9 0.9 0.00 0.00 0.00 77 1008.3
20260504041742 36 268 1.7 1.7 0.00 0.00 0.00 77 1008.2
20260504041238 36 267 0.9 0.9 0.00 0.00 0.00 77 1008.2
20260504040734 36 267 0.0 0.0 0.00 0.00 0.00 78 1008.2
20260504040232 36 266 0.0 0.0 0.00 0.00 0.00 76 1008.1
20260504035728 36 266 0.9 0.9 0.00 0.00 0.00 76 1008.0
20260504035225 36 267 0.0 0.9 0.00 0.00 0.00 77 1008.1
20260504034723 36 268 0.9 0.9 0.00 0.00 0.00 77 1008.0
20260504034220 36 259 0.0 0.0 0.00 0.00 0.00 76 1008.0
20260504033717 36 259 0.0 0.0 0.00 0.00 0.00 76 1008.1
20260504033215 36 259 0.0 0.0 0.00 0.00 0.00 76 1008.2
20260504032711 36 259 0.0 0.9 0.00 0.00 0.00 76 1008.1
20260504032209 36 258 0.0 0.9 0.00 0.00 0.00 77 1008.2
20260504031705 36 258 0.0 0.0 0.00 0.00 0.00 77 1008.0
20260504031202 36 258 0.0 0.0 0.00 0.00 0.00 78 1008.0
20260504030658 36 258 0.0 0.0 0.00 0.00 0.00 77 1007.9
20260504030156 36 258 0.0 0.0 0.00 0.00 0.00 76 1008.2
20260504025652 36 258 0.9 0.9 0.00 0.00 0.00 76 1008.3
20260504025149 37 257 0.0 0.0 0.00 0.00 0.00 76 1008.0
20260504024646 37 256 0.0 0.0 0.00 0.00 0.00 76 1008.2
20260504024142 37 255 0.9 0.9 0.00 0.00 0.00 77 1008.2
20260504023639 37 262 0.0 0.0 0.00 0.00 0.00 75 1008.1
20260504023135 38 261 0.0 0.0 0.00 0.00 0.00 74 1008.1
20260504022632 38 240 0.9 0.9 0.00 0.00 0.00 74 1008.0
20260504022127 38 236 0.0 0.0 0.00 0.00 0.00 73 1008.3
20260504021626 38 236 0.0 0.0 0.00 0.00 0.00 75 1008.0
20260504021122 39 236 0.0 0.0 0.00 0.00 0.00 71 1008.0
20260504020619 39 235 0.0 0.0 0.00 0.00 0.00 69 1008.3
20260504020115 39 235 0.0 0.0 0.00 0.00 0.00 70 1008.2
20260504015612 40 235 0.0 0.0 0.00 0.00 0.00 68 1008.3
20260504015108 40 235 0.0 0.0 0.00 0.00 0.00 71 1008.1
20260504014604 40 235 0.0 0.0 0.00 0.00 0.00 67 1008.0
20260504014102 40 233 0.0 0.0 0.00 0.00 0.00 67 1008.1
20260504013559 40 233 0.9 0.9 0.00 0.00 0.00 68 1007.9
20260504013056 41 233 0.0 0.9 0.00 0.00 0.00 67 1008.2
20260504012553 40 233 0.0 0.0 0.00 0.00 0.00 69 1008.0
20260504012051 40 233 0.0 0.0 0.00 0.00 0.00 66 1007.8
20260504011547 40 233 0.0 0.0 0.00 0.00 0.00 66 1007.7
20260504011043 40 233 0.0 0.0 0.00 0.00 0.00 67 1007.7
20260504010539 41 233 0.0 0.0 0.00 0.00 0.00 67 1007.8
20260504010036 41 233 0.0 0.0 0.00 0.00 0.00 66 1007.5
20260504005532 41 233 0.0 0.0 0.00 0.00 0.00 64 1007.3
20260504005030 42 233 0.0 0.0 0.00 0.00 0.00 64 1007.4
20260504004528 42 233 0.0 0.0 0.00 0.00 0.00 64 1007.5
20260504004024 43 233 0.0 0.0 0.00 0.00 0.00 65 1007.3
20260504003520 43 233 0.0 0.0 0.00 0.00 0.00 60 1007.3
20260504003018 43 233 0.0 0.0 0.00 0.00 0.00 60 1007.2
20260504002514 43 233 0.0 0.0 0.00 0.00 0.00 60 1007.1
20260504002006 43 233 0.0 0.0 0.00 0.00 0.00 59 1007.2
20260504001503 44 233 0.0 0.0 0.00 0.00 0.00 61 1007.2
20260504000959 44 233 0.0 0.0 0.00 0.00 0.00 56 1007.1
20260504000457 44 233 0.0 0.0 0.00 0.00 0.00 57 1007.1
20260503235954 44 233 0.0 0.0 0.00 0.00 0.00 56 1007.1
20260503235452 44 233 0.0 0.0 0.00 0.00 0.00 56 1006.9
20260503234949 45 233 0.9 0.9 0.00 0.00 0.00 57 1007.1
20260503234446 45 232 0.0 0.0 0.00 0.00 0.00 58 1006.8
20260503233945 45 228 0.0 0.0 0.00 0.00 0.00 60 1007.1
20260503233440 45 227 0.0 0.0 0.00 0.00 0.00 58 1006.6
20260503232937 46 227 0.0 0.0 0.00 0.00 0.00 58 1006.8
20260503232434 46 279 0.9 0.9 0.00 0.00 0.00 54 1006.8
20260503231932 46 276 0.9 0.9 0.00 0.00 0.00 56 1006.6
20260503231429 47 304 0.0 0.0 0.00 0.00 0.00 53 1006.6
20260503230926 47 305 0.0 0.0 0.00 0.00 0.00 55 1006.7
20260503230422 47 305 0.0 0.0 0.00 0.00 0.00 52 1006.7
20260503225920 47 305 0.0 0.0 0.00 0.00 0.00 49 1006.7
20260503225416 48 276 0.9 0.9 0.00 0.00 0.00 50 1006.7
20260503224912 48 248 0.9 0.9 0.00 0.00 0.00 48 1006.6
20260503224409 48 251 0.0 0.0 0.00 0.00 0.00 47 1006.7
20260503223907 48 17 0.0 0.0 0.00 0.00 0.00 50 1006.5
20260503223405 48 274 0.0 0.9 0.00 0.00 0.00 49 1006.6
20260503222900 48 336 0.9 1.7 0.00 0.00 0.00 50 1006.4
20260503222359 48 308 1.7 2.6 0.00 0.00 0.00 47 1006.7
20260503221856 48 301 0.9 0.9 0.00 0.00 0.00 48 1006.7
20260503221355 48 3 0.0 0.9 0.00 0.00 0.00 47 1006.8
20260503220850 49 6 0.0 0.9 0.00 0.00 0.00 46 1006.8
20260503220347 49 285 0.9 0.9 0.00 0.00 0.00 50 1006.4
20260503215844 49 3 0.9 0.9 0.00 0.00 0.00 48 1006.7
20260503215342 49 323 0.0 0.9 0.00 0.00 0.00 48 1006.5
20260503214839 49 339 0.0 0.0 0.00 0.00 0.00 49 1006.5
20260503214336 49 296 1.7 1.7 0.00 0.00 0.00 47 1006.5
20260503213833 48 268 0.0 0.0 0.00 0.00 0.00 49 1006.4
20260503213331 48 46 0.9 0.9 0.00 0.00 0.00 53 1006.4
20260503212828 48 38 0.9 1.7 0.00 0.00 0.00 50 1006.6
20260503212326 48 54 0.0 0.9 0.00 0.00 0.00 49 1006.5
20260503211823 48 53 0.0 0.0 0.00 0.00 0.00 51 1006.7
20260503211319 48 94 0.9 0.9 0.00 0.00 0.00 49 1006.7
20260503210819 48 70 0.0 0.9 0.00 0.00 0.00 49 1006.5
20260503210317 48 37 0.0 0.9 0.00 0.00 0.00 51 1006.5
20260503205812 48 90 0.9 0.9 0.00 0.00 0.00 50 1006.4
20260503205309 47 305 0.0 0.9 0.00 0.00 0.00 50 1006.6
20260503204805 48 10 0.0 0.0 0.00 0.00 0.00 51 1006.5
20260503204303 48 330 0.9 1.7 0.00 0.00 0.00 53 1006.4
20260503203800 48 57 0.0 0.9 0.00 0.00 0.00 50 1006.5
20260503203257 47 315 0.9 1.7 0.00 0.00 0.00 50 1006.3
20260503202754 47 75 0.9 0.9 0.00 0.00 0.00 49 1006.4
20260503202252 48 298 0.9 1.7 0.00 0.00 0.00 50 1006.6
20260503201744 48 32 0.9 0.9 0.00 0.00 0.00 49 1006.3
20260503201241 48 84 1.7 1.7 0.00 0.00 0.00 47 1006.3
20260503200738 48 33 2.6 3.5 0.00 0.00 0.00 47 1006.4
20260503200234 48 324 1.7 2.6 0.00 0.00 0.00 48 1006.4
20260503195731 48 277 0.9 0.9 0.00 0.00 0.00 48 1006.4
20260503195228 49 316 1.7 2.6 0.00 0.00 0.00 48 1006.5
20260503194726 48 43 0.9 3.5 0.00 0.00 0.00 47 1006.4
20260503194221 48 278 0.0 0.9 0.00 0.00 0.00 49 1006.5
20260503193718 48 40 1.7 1.7 0.00 0.00 0.00 48 1006.5
20260503193214 48 52 0.0 0.9 0.00 0.00 0.00 49 1006.5
20260503192709 48 326 0.9 0.9 0.00 0.00 0.00 47 1006.7
20260503192205 49 296 1.7 1.7 0.00 0.00 0.00 45 1006.7
20260503191701 50 323 1.7 1.7 0.00 0.00 0.00 44 1006.7
20260503191159 49 309 1.7 1.7 0.00 0.00 0.00 46 1006.6
20260503190656 49 20 1.7 1.7 0.00 0.00 0.00 44 1006.4
20260503190152 49 142 5.2 8.7 0.00 0.00 0.00 43 1006.4
20260503185649 50 29 1.7 2.6 0.00 0.00 0.00 42 1006.4
20260503185144 50 358 1.7 3.5 0.00 0.00 0.00 45 1006.5
20260503184640 50 49 1.7 1.7 0.00 0.00 0.00 45 1006.5
20260503184136 49 6 1.7 2.6 0.00 0.00 0.00 47 1006.5
20260503183633 50 22 1.7 1.7 0.00 0.00 0.00 44 1006.5
20260503183130 50 296 1.7 2.6 0.00 0.00 0.00 48 1006.6
20260503182628 49 87 0.9 0.9 0.00 0.00 0.00 48 1006.4
20260503182126 49 65 0.0 0.9 0.00 0.00 0.00 48 1006.4
20260503181623 49 295 0.9 1.7 0.00 0.00 0.00 44 1006.6
20260503181120 49 310 0.9 1.7 0.00 0.00 0.00 46 1006.6
20260503180617 48 22 0.9 0.9 0.00 0.00 0.00 44 1006.6
20260503180115 48 81 1.7 2.6 0.00 0.00 0.00 45 1006.4
20260503175611 48 59 1.7 2.6 0.00 0.00 0.00 45 1006.4
20260503175108 49 314 2.6 2.6 0.00 0.00 0.00 44 1006.4
20260503174605 49 11 1.7 1.7 0.00 0.00 0.00 45 1006.2
20260503174102 50 312 2.6 2.6 0.00 0.00 0.00 41 1006.3
20260503173556 49 300 0.9 1.7 0.00 0.00 0.00 39 1006.1
20260503173054 50 312 0.9 1.7 0.00 0.00 0.00 43 1006.2
20260503172551 50 43 0.9 0.9 0.00 0.00 0.00 47 1006.2
20260503172048 50 51 0.9 0.9 0.00 0.00 0.00 42 1006.2
20260503171544 49 64 0.0 0.9 0.00 0.00 0.00 47 1006.3
20260503171042 49 41 0.9 0.9 0.00 0.00 0.00 47 1006.2
20260503170538 49 40 2.6 5.2 0.00 0.00 0.00 42 1006.1